User: anonymous   Login
Location: Mentone
(34.5413°N, 85.5351°W)
Time: 00:06:12
(UTC-06:00)
Language:

Uosat F - Orbit

View from above orbital plane
View from above orbital plane
View from above satellite
View from above satellite

Ground track
Ground track

The orbit data is extracted from the following two-line orbital elements,

1 21575U 91050B   16038.22541505  .00000098  00000-0  45186-4 0  9992
2 21575  98.7569  36.6451 0006976 344.7968  15.3009 14.40712386289867
Epoch (UTC): 07 February 2016 05:24:35
Eccentricity: 0.0006976
inclination: 98.7569°
perigee height: 751 km
apogee height: 761 km
right ascension of ascending node: 36.6451°
argument of perigee: 344.7968°
revolutions per day: 14.40712386
mean anomaly at epoch: 15.3009°
orbit number at epoch: 28986

The dashed part of the orbit path shows where the satellite is in the earth's shadow,  

DLR